www.pogodaiklimat.ru
Время
(UTC), дата
10 15.04
11 15.04
12 15.04
13 15.04
14 15.04
15 15.04
16 15.04
17 15.04
18 15.04
19 15.04
20 15.04
21 15.04
22 15.04
23 15.04
00 16.04
01 16.04
02 16.04
03 16.04
04 16.04
05 16.04
06 16.04
07 16.04
08 16.04
09 16.04
10 16.04
11 16.04
12 16.04
13 16.04
14 16.04
15 16.04
16 16.04
17 16.04
18 16.04
19 16.04
20 16.04
21 16.04
22 16.04
23 16.04
00 17.04
01 17.04
02 17.04
03 17.04
04 17.04
05 17.04
06 17.04
07 17.04
08 17.04
09 17.04
10 17.04
11 17.04
12 17.04
13 17.04
14 17.04
15 17.04
16 17.04
17 17.04
18 17.04
19 17.04
20 17.04
21 17.04
22 17.04
23 17.04
00 18.04
01 18.04
02 18.04
03 18.04
04 18.04
05 18.04
06 18.04
07 18.04
08 18.04
09 18.04
10 18.04
11 18.04
12 18.04
13 18.04
14 18.04
15 18.04
16 18.04
17 18.04
18 18.04
19 18.04
20 18.04
21 18.04
22 18.04
23 18.04
00 19.04
01 19.04
02 19.04
03 19.04
04 19.04
05 19.04
06 19.04
07 19.04
08 19.04
09 19.04
10 19.04
11 19.04
12 19.04
13 19.04
14 19.04
15 19.04
16 19.04
17 19.04
18 19.04
19 19.04
20 19.04
21 19.04
22 19.04
23 19.04
00 20.04
01 20.04
02 20.04
03 20.04
04 20.04
05 20.04
06 20.04
07 20.04
08 20.04
09 20.04
10 20.04
11 20.04
12 20.04
13 20.04
14 20.04
15 20.04
16 20.04
17 20.04
18 20.04
19 20.04
20 20.04
21 20.04
22 20.04
23 20.04
00 21.04
01 21.04
02 21.04
03 21.04
04 21.04
05 21.04
06 21.04
07 21.04
08 21.04
09 21.04
10 21.04
11 21.04
12 21.04
13 21.04
14 21.04
15 21.04
16 21.04
17 21.04
18 21.04
19 21.04
20 21.04
21 21.04
22 21.04
23 21.04
00 22.04
01 22.04
02 22.04
03 22.04
04 22.04
05 22.04
06 22.04
07 22.04
08 22.04
09 22.04
10 22.04
Ветер
(напр.,м/с)
Видим. Явления Облачность Т
(С)
Тd
(С)
f
(%)
Тe
(С)
Тes
(С)
Комфортность P
(гПа)
Po
(гПа)
Тmin
(С)
Tmax
(С)
R
(мм)
R24
(мм)
S
(см)
С 8 60 км 10/5 1080 м
[Cu med, cong Ac As]
+4.1 -4.6 53 -2 -1 по сезону 1026.0 981.1
С 7
{11}
20 км слаб. дождь со снегом 10/10 630 м
[Sc]
+3.2 -2.7 65 -3 -3 тепло 1026.0 981.0
С 7
{12}
8000 м слаб. дождь со снегом 10/10 420 м
[Sc]
+3.0 -2.1 69 -3 -3 очень
холодно
1025.8 980.8 0.0
С 7
{11}
20 км в посл. час дождь со снегом 10/8 700 м
[Cu Sc As trans]
+3.9 -2.5 63 -2 -1 очень
холодно
1025.5 980.6
С 6 20 км слаб. дождь со снегом 10/9 750 м
[Sc As op]
+3.6 -2.4 65 -2 -2 холодно 1025.3 980.4
С 6
{11}
20 км слаб. дождь со снегом 10/9 540 м
[Sc As op]
+3.2 -1.9 69 -2 -2 очень
холодно
1025.4 980.4
СЗ 6 12 км слаб. дождь со снегом 10/10 570 м
[Sc]
+2.3 -1.1 78 -4 -4 очень
холодно
1025.4 980.3
С 5 3000 м слаб. дождь со снегом 10/10 240 м
[Sc]
+1.2 0.0 92 -5 -5 холодно 1025.5 980.2
СЗ 3
{11}
4500 м слаб. снег 10/10 150 м
[Sc]
+0.5 -0.1 96 -4 -4 очень
холодно
1025.6 980.2 +4.6 0.7
СЗ 3 7000 м слаб. снег 10/10 150 м
[Sc]
+0.5 -0.1 96 -4 -4 холодно 1025.7 980.3
СЗ 4 7000 м слаб. снег 10/10 120 м
[Sc]
+0.5 -0.1 96 -5 -5 прохладно 1025.5 980.1
СЗ 3 9000 м слаб. снег [диам. отлож. мокр. снега 1 мм] 10/10 240 м
[Sc]
+0.4 -0.2 96 -4 -4 холодно 1025.4 980.0
З 3 11 км слаб. снег 10/10 180 м
[Sc]
+0.6 -0.3 94 -4 -4 прохладно 1025.0 979.6
З 3 13 км в посл. час снег 10/10 450 м
[Sc]
+0.8 -0.2 93 -4 -4 по сезону 1024.7 979.4
СЗ 3 15 км {снег} 10/10 450 м
[Sc]
+0.9 -0.5 90 -4 -4 прохладно 1024.4 979.1 0.4
СЗ 3 20 км 10/10 480 м
[Sc]
+0.7 -0.6 91 -4 -4 по сезону 1024.0 978.7
СЗ 3 20 км 8/8 540 м
[Sc]
+0.4 -0.9 91 -4 -4 по сезону 1024.0 978.6
СЗ 3 25 км 8/5 540 м
[Sc Ac As]
+0.1 -1.2 91 -5 -5 холодно 1023.6 978.2
СЗ 4 9000 м слаб. снег 10/10 600 м
[Sc]
+0.3 -1.3 89 -5 -5 по сезону 1023.7 978.3
СЗ 3 9000 м слаб. снег 10/10 480 м
[Sc]
+0.3 -1.0 91 -4 -4 по сезону 1023.8 978.4
СЗ 4 12 км слаб. снег 10/10 300 м
[Sc]
+0.6 -1.0 89 -5 -5 холодно 1023.9 978.6 +0.1 0.4 1.1 0
СЗ 4 20 км слаб. снег 10/10 270 м
[Sc]
+1.4 -0.2 89 -4 -4 по сезону 1023.8 978.6
СЗ 4 25 км в посл. час снег 10/10 300 м
[Sc]
+1.9 -0.2 86 -3 -3 по сезону 1023.9 978.8
СЗ 4 30 км {снег} 10/10 400 м
[Sc]
+2.2 -0.2 84 -3 -3 очень
холодно
1024.1 979.0
СЗ 4 30 км 10/10 420 м
[Sc]
+2.6 -0.2 82 -2 -2 прохладно 1024.1 979.1
СЗ 4 20 км в посл. час дождь 10/10 400 м
[Sc]
+2.8 +0.2 83 -2 -2 по сезону 1023.9 978.9
СЗ 4 30 км {снег, дождь} 10/10 400 м
[Sc]
+2.9 +0.5 84 -2 -2 очень
холодно
1024.1 979.1 0.0
СЗ 5 25 км слаб. дождь 10/10 400 м
[Sc]
+3.0 +0.4 83 -2 -2 холодно 1024.2 979.3
СЗ 5 25 км в посл. час дождь 10/10 400 м
[Sc]
+3.2 +0.5 82 -2 -2 прохладно 1023.8 978.9
СЗ 4 30 км в посл. час дождь 10/10 420 м
[Sc]
+3.3 +0.8 84 -1 -1 холодно 1023.8 978.9
СЗ 3 30 км 10/10 840 м
[Sc]
+3.4 +0.6 82 -0 -0 прохладно 1023.8 978.9
З 3 25 км 10/10 1140 м
[Sc]
+3.4 +0.9 84 -1 -1 по сезону 1023.5 978.7
З 3 20 км слаб. дождь 10/6 600 м
[Sc Ac As]
+3.1 +0.7 84 -1 -1 холодно 1023.8 978.9 +3.6 0.1
З 3 25 км слаб. дождь 10/9 1200 м
[Sc]
+3.0 +0.6 84 -1 -1 по сезону 1024.0 979.1
З 3 20 км слаб. дождь 10/10 1200 м
[Sc]
+2.8 +0.9 87 -1 -1 по сезону 1024.0 979.0
З 3 20 км слаб. дождь 10/10 1050 м
[Sc]
+3.0 +0.9 86 -1 -1 прохладно 1023.6 978.7
З 3 18 км слаб. дождь 10/10 540 м
[Sc]
+3.0 +1.2 88 -1 -1 по сезону 1023.5 978.6
З 4 20 км слаб. дождь 10/10 750 м
[Sc]
+3.0 +1.1 87 -2 -2 по сезону 1023.0 978.1
З 4 25 км в посл. час дождь 10/10 800 м
[Sc]
+2.9 +1.1 88 -2 -2 по сезону 1022.6 977.7 0.3
З 4 25 км 10/10 840 м
[Sc]
+3.0 +1.0 87 -2 -2 по сезону 1022.1 977.3
З 4 25 км 10/10 1350 м
[Sc]
+3.1 +0.9 85 -2 -2 тепло 1021.7 976.9
З 3 30 км 10/10 1260 м
[Sc]
+2.7 +0.9 88 -1 -1 по сезону 1021.6 976.7
СЗ 3 30 км 10/10 720 м
[Sc]
+2.8 +0.5 85 -1 -1 по сезону 1021.7 976.8
С 4 25 км 10/10 900 м
[Sc]
+2.5 -0.1 83 -2 -2 тепло 1022.0 977.1
С 4 8000 м слаб. дождь со снегом 10/10 180 м
[Frnb]
+1.5 +0.6 94 -4 -4 прохладно 1022.4 977.3 +1.5 0.5 0.6
СЗ 4 12 км слаб. дождь со снегом 10/10 90 м
[Frnb]
+1.5 +0.8 95 -4 -4 по сезону 1022.3 977.2
СЗ 3 25 км слаб. дождь 10/10 210 м
[Sc]
+2.0 +0.9 92 -2 -2 тепло 1022.2 977.2
СЗ 3 30 км в посл. час дождь 10/10 300 м
[Sc]
+2.8 +1.0 88 -1 -1 прохладно 1022.1 977.2
СЗ 4 30 км 10/10 450 м
[Sc]
+3.5 +0.9 83 -1 -1 по сезону 1022.0 977.2
СЗ 3 30 км слаб. дождь 10/10 480 м
[Sc]
+3.4 +0.3 80 -0 -0 по сезону 1021.8 977.0
СЗ 3 25 км слаб. дождь 10/10 500 м
[Sc]
+3.6 +0.5 80 -0 -0 холодно 1021.7 977.0 0.3
СЗ 3 25 км слаб. дождь 10/10 420 м
[Sc]
+3.5 +0.6 81 -0 -0 прохладно 1021.9 977.1
СЗ 3 25 км слаб. дождь 10/10 480 м
[Sc]
+3.6 +0.5 80 -0 -0 по сезону 1021.6 976.9
СЗ 2 22 км слаб. дождь 10/10 450 м
[Sc]
+3.7 +0.4 79 +1 +1 прохладно 1021.3 976.6
СЗ 2 25 км в посл. час дождь 10/10 500 м
[Sc]
+4.0 +0.9 80 +1 +1 по сезону 1021.1 976.5
СЗ 2 22 км 10/10 500 м
[Sc]
+4.0 +1.0 81 +1 +1 по сезону 1021.1 976.5
СЗ 1 20 км {дождь} 10/10 540 м
[Sc]
+3.8 +1.5 85 +2 +2 по сезону 1021.5 976.8 +4.1 0.5
ЮЗ 1 20 км 10/10 500 м
[Sc]
+3.7 +2.1 89 +2 +2 по сезону 1021.8 977.1
З 2 16 км 10/9 500 м
[Sc]
+3.3 +2.1 92 0 0 по сезону 1021.9 977.1
З 1 15 км 10/10 700 м
[Sc]
+3.4 +2.1 91 +2 +2 по сезону 1021.9 977.1
ЮЗ 2 12 км 10/10 750 м
[Sc]
+3.2 +2.2 93 0 0 по сезону 1021.8 977.0
ЮЗ 2 11 км 10/10 750 м
[Sc]
+3.1 +2.1 93 -0 -0 тепло 1021.5 976.7
ЮЗ 2 10 км 10/10 750 м
[Sc]
+3.0 +2.1 94 -0 -0 по сезону 1021.2 976.4
З 2 10 км 10/10 800 м
[Sc]
+3.0 +2.0 93 -0 -0 тепло 1020.9 976.1
З 1 9000 м дымка 10/10 800 м
[Sc]
+3.0 +2.1 94 +1 +1 тепло 1020.5 975.7
З 1 9000 м дымка 10/10 1000 м
[Sc]
+2.9 +2.0 94 +1 +1 по сезону 1020.6 975.8
ЮЗ 2 7000 м дымка 10/10 1500 м
[Sc]
+2.8 +2.0 94 -1 -1 по сезону 1020.5 975.7
ЮЗ 2 6000 м дымка 4/4 1500 м
[Sc]
+3.5 +2.2 91 0 +1 тепло 1020.1 975.4
З 2 11 км 3/3 1500 м
[Sc Ci fib]
+5.0 +2.5 84 +2 +4 по сезону 1019.9 975.5 +2.8 0.5
З 2 15 км 4/4 400 м
[Cu Sc Ac As]
+6.7 +2.7 76 +5 +7 тепло 1019.5 975.4
С 2 12 км 10/9 480 м
[Sc diur, vesp]
+6.9 +2.7 75 +5 +5 тепло 1019.6 975.5
С 3 18 км 9/9 600 м
[Sc]
+7.8 +3.5 74 +5 +6 по сезону 1019.4 975.4
СЗ 3 18 км 9/6 600 м
[Sc Ac As]
+8.4 +3.5 71 +6 +8 тепло 1019.3 975.4
С 2 22 км 9/6 700 м
[Cu Sc Ac As]
+8.9 +3.1 67 +7 +10 тепло 1019.1 975.3
С 2 24 км 9/8 750 м
[Cu Sc Ac As]
+9.8 +3.1 63 +9 +10 тепло 1018.6 975.0
С 3 26 км 9/5 900 м
[Cu Sc Ac As]
+10.1 +3.3 63 +8 +10 тепло 1018.3 974.7
СЗ 3 26 км 9/8 1000 м
[Cu Sc Ac cuf]
+10.3 +2.9 60 +9 +9 тепло 1018.1 974.6
З 1 25 км 9/8 900 м
[Cu Sc Ac cuf]
+10.3 +2.5 58 +10 +11 тепло 1018.0 974.5
СВ 4 20 км осадки на расстоянии 9/5 750 м
[Sc diur, vesp Ac cuf]
+9.4 +4.2 70 +7 +7 тепло 1018.3 974.6
СВ 4 25 км осадки на расстоянии 9/4 750 м
[Sc diur, vesp Ac cuf]
+8.7 +3.9 72 +6 +6 тепло 1018.8 975.0
СВ 2 30 км 9/6 1080 м
[Sc diur, vesp Ac As]
+8.2 +3.5 72 +6 +6 по сезону 1019.5 975.6 +10.6
С 1 30 км 9/3 1200 м
[Sc Ac As]
+7.2 +4.1 81 +6 +6 тепло 1020.0 975.9
С 1 25 км 9/4 1300 м
[Sc Ac As]
+6.9 +4.1 82 +6 +6 тепло 1020.1 976.0
СЗ 2 15 км слаб. дождь 9/9 630 м
[Sc]
+6.7 +4.1 83 +4 +4 по сезону 1020.2 976.0
С 2 20 км в посл. час дождь 9/9 630 м
[Sc]
+6.2 +4.6 89 +4 +4 тепло 1020.2 976.0
С 2 15 км 10/10 630 м
[Sc]
+6.0 +4.4 89 +4 +4 тепло 1020.2 975.9
С 2 15 км {дождь} 10/10 700 м
[Sc]
+5.9 +4.3 89 +3 +3 по сезону 1019.8 975.5 0.0
С 2 15 км слаб. ливневой дождь 10/9 480 м
[Sc diur, vesp]
+5.7 +4.2 90 +3 +3 тепло 1019.5 975.2
С 2 10 км в посл. час ливневой дождь 10/9 900 м
[Sc]
+5.3 +4.4 94 +3 +3 тепло 1019.4 975.1
С 2 9000 м дымка {ливн. дождь} 10/9 1000 м
[Sc]
+5.0 +4.1 94 +2 +2 по сезону 1019.5 975.1
С 1 6000 м дымка 10/9 1200 м
[Sc]
+4.8 +4.1 95 +3 +3 тепло 1019.5 975.1
С 2 6000 м дымка 10/10 1350 м
[Sc]
+5.1 +4.4 95 +2 +2 тепло 1019.7 975.3
С 2 9000 м дымка {ливн. дождь} 9/9 1440 м
[Sc]
+6.0 +4.3 89 +4 +4 тепло 1019.5 975.3 +4.8 0.2 0.2
С 2 9000 м дымка 9/9 1380 м
[Sc]
+6.9 +4.7 86 +5 +5 тепло 1019.6 975.5
С 2 15 км 9/9 400 м
[Sc]
+7.3 +4.4 82 +5 +6 тепло 1019.5 975.5
С 3 20 км 9/9 480 м
[Cu Sc]
+8.3 +3.9 74 +6 +7 тепло 1019.4 975.5
С 3 25 км 9/9 840 м
[Cu Sc]
+9.3 +3.1 65 +7 +8 тепло 1018.9 975.2
СВ 3 30 км 10/5 1080 м
[Sc diur, vesp As trans]
+10.1 +1.5 55 +8 +11 тепло 1018.5 974.9
С 2 30 км 10/9 1200 м
[Sc diur, vesp]
+10.4 +2.3 57 +9 +10 тепло 1018.1 974.6
С 3 20 км слаб. дождь 10/9 1080 м
[Sc diur, vesp]
+10.5 +2.1 56 +9 +9 тепло 1018.0 974.5
ЮВ 2 30 км в посл. час дождь 10/10 1350 м
[Sc]
+9.8 +2.6 61 +9 +9 тепло 1017.9 974.3
Ю 2 35 км слаб. дождь 10/10 1230 м
[Sc]
+9.2 +4.0 70 +8 +8 тепло 1017.6 973.9
Ю 3 30 км в посл. час дождь 10/10 1080 м
[Sc]
+8.5 +4.5 76 +6 +6 тепло 1017.7 973.9
ЮЗ 3 20 км 8/6 1080 м
[Sc Ac As]
+8.3 +4.8 79 +6 +6 тепло 1017.3 973.5
ЮЗ 3 20 км {дождь} 8/6 1200 м
[Sc Ac As Ci sp]
+6.8 +4.1 83 +4 +4 по сезону 1017.7 973.7 +11.1 0.1
З 2 20 км 9/9 1140 м
[Sc]
+6.2 +3.6 83 +4 +4 тепло 1018.2 974.0
СЗ 1 20 км 9/9 1080 м
[Sc]
+6.8 +3.7 81 +6 +6 тепло 1017.9 973.9
С 3 18 км слаб. дождь 10/3 1200 м
[Sc Ac As]
+7.8 +5.2 84 +5 +5 тепло 1017.4 973.5
С 3 15 км в посл. час дождь 10/4 1200 м
[Sc Ac As]
+7.5 +4.9 84 +5 +5 тепло 1017.4 973.5
С 3 15 км слаб. дождь 10/3 1300 м
[Sc Ac As]
+7.0 +5.2 88 +4 +4 тепло 1017.4 973.4
СЗ 1 25 км в посл. час дождь 9/6 1500 м
[Sc Ac As]
+6.9 +5.2 89 +6 +6 тепло 1016.9 972.9 0.1
СЗ 1 25 км 9/1 1500 м
[Sc Ac As]
+6.5 +5.0 90 +5 +5 тепло 1016.7 972.7
ЮЗ 2 20 км 9/0
[Ac As]
+5.3 +4.4 94 +3 +3 тепло 1016.7 972.5
З 3 18 км 4/0
[Ac lent]
+3.8 +2.8 93 -0 -0 по сезону 1016.9 972.4
З 3 15 км 4/1 1500 м
[Sc Ac lent]
+3.4 +2.8 96 -1 -1 по сезону 1016.9 972.4
З 2 8000 м дымка 3/0
[Ac lent]
+4.4 +3.4 93 +2 +2 тепло 1017.2 972.8
З 1 8000 м дымка 4/3 1380 м
[Sc Ac lent]
+6.1 +4.9 92 +5 +7 по сезону 1017.2 973.1 +3.0 0.1 0.2
С 4 10 км 4/4 1380 м
[Sc Ac lent]
+8.4 +5.7 83 +5 +7 тепло 1017.0 973.3
С 3 15 км 4/4 450 м
[Cu Sc Ac lent]
+9.8 +6.0 77 +8 +12 тепло 1016.7 973.2
СЗ 2 20 км 4/4 540 м
[Cu Sc]
+11.2 +6.1 71 +10 +17 тепло 1016.3 973.0
СВ 2 25 км 4/4 700 м
[Cu med, cong]
+12.0 +5.6 65 +11 +19 тепло 1015.9 972.7
С 1 25 км 5/5 900 м
[Cu med, cong]
+13.9 +6.5 61 +14 +23 тепло 1015.2 972.4
Ю 1 30 км 5/5 1200 м
[Cu med, cong Ac cuf Ci fib]
+14.6 +4.3 50 +15 +23 тепло 1014.6 971.9
30 км 5/4 1500 м
[Cu med, cong Ac cuf Ci fib]
+15.4 +2.2 41 1014.0 971.4
25 км осадки на расстоянии 6/5 1500 м
[Cb calv Ac cuf Ci ing]
+14.8 +1.3 40 1013.8 971.1
З 5 25 км 6/4 1500 м
[Sc diur, vesp Ac cuf Ci ing]
+13.5 +5.7 59 +12 +13 тепло 1014.1 971.2
З 5 25 км 6/4 1500 м
[Sc diur, vesp Ac cuf Ci ing]
+13.9 +4.8 54 +12 +13 тепло 1013.9 971.1
СЗ 4 30 км 4/1 1500 м
[Cu med, cong Ac cuf Ci ing]
+12.9 +3.8 54 +11 +12 тепло 1014.0 971.0
С 2 30 км 4/1 1500 м
[Sc diur, vesp Ac cuf Ci ing]
+10.7 +4.2 64 +10 +10 тепло 1014.7 971.4 +15.6
СЗ 1 30 км 6/0
[Ac cuf]
+9.9 +4.5 69 +10 +10 тепло 1015.3 971.8
З 2 25 км 4/0
[Ac cuf Ci fib]
+9.0 +3.2 67 +8 +8 тепло 1015.5 971.9
ЮЗ 2 25 км 4/0
[Ac lent]
+6.7 +3.0 77 +5 +5 по сезону 1015.7 971.7
ЮЗ 4 25 км 5/0
[Ac lent]
+5.9 +3.2 83 +2 +2 по сезону 1015.9 971.8
ЮЗ 4 25 км 6/4 1500 м
[Sc Ac lent]
+6.3 +3.8 84 +3 +3 тепло 1015.8 971.8
ЮЗ 3 25 км 6/1 1500 м
[Sc Ac lent]
+5.0 +3.3 89 +1 +1 по сезону 1015.7 971.5
ЮЗ 4 20 км 1/0
[Ac lent]
+5.9 +3.9 87 +2 +2 по сезону 1015.4 971.3
ЮЗ 4 15 км 1/1 1380 м
[Sc]
+5.4 +3.7 89 +1 +1 тепло 1015.2 971.1
ЮЗ 3 15 км 4/1 1380 м
[Sc Ac lent]
+4.1 +3.1 93 0 0 прохладно 1015.4 971.0
ЮЗ 4 9000 м дымка 3/0
[Ac lent]
+4.7 +3.4 91 0 0 по сезону 1015.3 971.0
ЮЗ 4 12 км 3/0
[Ac lent]
+4.9 +3.7 92 +1 +1 тепло 1015.4 971.2
ЮЗ 3 15 км 1/0
[Ac lent]
+7.5 +5.1 85 +5 +6 по сезону 1015.2 971.4 +3.7
З 4 20 км 1/0
[Ac lent]
+9.7 +6.4 80 +7 +10 тепло 1014.8 971.4
ЮЗ 4 20 км 5/5 1500 м
[Sc]
+12.7 +6.7 67 +11 +14 тепло 1014.5 971.5
ЮЗ 4 25 км 5/5 900 м
[Cu Sc]
+13.6 +5.5 58 +12 +16 тепло 1014.5 971.6
СЗ 4 25 км 6/6 1300 м
[Cb calv Ac cuf]
+14.4 +4.7 52 +13 +17 тепло 1014.0 971.3
В 1 30 км в посл. час ливневой дождь 6/5 1500 м
[Cu med, cong Ac cuf Ci ing]
+13.6 +2.8 48 +14 +22 тепло 1014.0 971.1
СЗ 4 35 км {ливн. дождь} 6/5 1500 м
[Cb cap Ac cuf Ci ing]
+14.2 +2.8 46 +13 +17 по сезону 1013.5 970.7 0.0
СЗ 5 40 км в посл. час ливневой дождь 8/5 1500 м
[Cb calv Ac cuf Ci ing]
+14.4 +2.6 45 +13 +15 тепло 1013.1 970.4
Ю 3
{11}
40 км в посл. час ливневой дождь 8/5 1300 м
[Cb cap Ac cuf Ci ing]
+14.8 +3.6 47 +14 +17 тепло 1012.6 970.0
Ю 6
{11}
40 км в посл. час ливневой дождь 5/3 1300 м
[Cb cap Ac cuf Ci ing]
+14.1 +3.3 48 +12 +14 по сезону 1012.5 969.8
ЮЗ 4 40 км 5/1 1500 м
[Sc diur, vesp Ac cuf Ci ing]
+13.8 +4.4 53 +13 +14 тепло 1012.7 969.9
З 3 40 км гроза без осадков 5/3 1300 м
[Cb cap Ac cuf Ci ing]
+13.1 +2.6 49 +12 +12 тепло 1012.9 970.0
ЮЗ 3
{11}
35 км в посл. час гроза {ливн. дождь} 3/1 1300 м
[Cb cap Ac cuf Ci ing]
+10.9 +5.0 67 +9 +9 по сезону 1013.8 970.6 +15.9 0.1
З 1 35 км 1/0
[Ac lent Ci fib]
+9.4 +4.1 69 +9 +9 тепло 1014.5 971.0
З 2 30 км 1/0
[Ci fib]
+6.9 +3.0 76 +5 +5 по сезону 1015.2 971.3
ЮЗ 4 28 км 4/0
[Ci fib]
+5.3 +2.3 81 +1 +1 прохладно 1015.8 971.6
ЮЗ 4 25 км 4/0
[Ac lent Ci fib]
+5.3 +2.8 84 +1 +1 по сезону 1015.7 971.5
З 3 25 км 8/0
[Ac As Ci fib]
+5.8 +3.3 84 +3 +3 по сезону 1016.0 971.9
З 3 25 км 5/0
[Ac As Ci fib]
+5.5 +2.7 82 +2 +2 по сезону 1016.2 972.0
СЗ 3 25 км 9/0
[Ac As Ci fib]
+6.6 +2.1 73 +4 +4 тепло 1016.4 972.4
СЗ 4 25 км 8/1 1500 м
[Sc Ac As Ci sp]
+6.9 +3.0 76 +3 +3 тепло 1016.6 972.6
С 6 25 км 9/8 750 м
[Sc Ac As]
+6.2 +2.1 75 +2 +2 по сезону 1017.3 973.2
СЗ 5 30 км в посл. час ливневой дождь 10/5 400 м
[Cu Sc Ac cuf]
+4.7 -0.5 69 0 0 по сезону 1018.1 973.7
СЗ 5 35 км 8/5 1380 м
[Sc Ac lent]
+3.6 -2.2 66 -1 -1 по сезону 1019.7 975.0
С 6 35 км 6/1 840 м
[Cu hum Ac lent Ci sp]
+3.6 -3.5 60 -2 -1 холодно 1020.5 975.8 +3.0 0.0 0.1
СЗ 6 35 км 9/1 960 м
[Cu hum Cc]
+4.1 -3.2 59 -1 +1 по сезону 1020.7 976.1
СЗ 6 35 км 8/1 1000 м
[Cu hum Cc]
+4.9 -2.6 58 0 +3 по сезону 1021.0 976.5
СЗ 4 35 км 8/1 1000 м
[Cu hum Cs]
+5.0 -2.7 57 +1 +7 холодно 1021.3 976.8
СЗ 5 35 км 8/1 1050 м
[Cu hum Cc]
+5.8 -2.3 56 +2 +7 прохладно 1021.3 976.9
Местоположение метеостанции Прага (Чехия): широта 50.10 долгота 14.25 высота над уровнем моря 365 м.
В архиве по умолчанию представлена погода в Праге за последнюю неделю. Архивные данные за месяц целиком и за предыдущие месяцы, начиная с января 2011 года, Вы можете получить, выбрав интересующий диапазон дат из раскрывающегося списка и нажав кнопку "Найти!".
*Определитесь, кто Вы:
Внимание! Время в таблицах - всемирное. Для получения местного времени необходимо прибавить поправку, которая равна 1 ч.
Смотрите также архив погоды в соседних городах и на ближайших метеорологических станциях:
Партнеры нашего сайта:      
Пояснения к столбцам:
  • Ветер - указаны скорость ветра в м/с - средняя за 10 мин, порывы в срок и между сроками (в фигурных скобках) и направление, откуда дует ветер: С - северный,
  • СВ - северо-восточный, В - восточный, ЮВ - юго-восточный, Ю - южный, ЮЗ - юго-западный, З - западный, СЗ - северо-западный.
  • Видимость - горизонтальная дальность видимости в метрах или километрах. При видимости от 1 до 10 км при отсутствии осадков обычно наблюдается дымка, при ухудшении видимости до 1 км и менее - туман. В сухую погоду видимость может ухудшаться дымом, пылью или мглою.
  • Явления - указаны атмосферные явления, наблюдавшиеся в срок или в последний час перед сроком; фигурными скобками обозначены явления, наблюдавшиеся между сроками (за 1-3 часа до срока); квадратными скобками обозначены град или гололедные отложения с указанием их диаметра в мм.
  • Облачность - указаны через наклонную черту общая и нижняя облачность в баллах и высота нижней границы облаков в метрах; квадратными скобками обозначены формы облаков: Ci - перистые, Cs - перисто-слоистые, Cc - перисто-кучевые, Ac - высококучевые, As - высокослоистые, Sc - слоисто-кучевые, Ns - слоисто-дождевые, Cu - кучевые, Cb - кучево-дождевые. Подробнее классификацию облаков см. в Атласе облаков (PDF).
  • T - Температура воздуха - температура, измеренная на высоте 2 м над землей.
  • Td - Температура точки росы - температура, при понижении до которой содержащийся в воздухе водяной пар достигнет насыщения.
  • f - Относительная влажность воздуха - влажноcть воздуха, измеренная на высоте 2 м над землей.
  • Te - Эффективная температура - температура, которую ощущает одетый по сезону человек в тени. Характеристика душности погоды. При расчете учитывается влияние влажности воздуха и скорости ветра на теплоощущения человека.
  • Tes - Эффективная температура на солнце - температура, которую ощущает человек, с поправкой на солнечный нагрев. Характеристика знойности погоды. Зависит от высоты солнца над горизонтом, облачности и скорости ветра. Ночью, в пасмурную погоду, а также при ветре 12 м/с и более поправка равна нулю.
  • P - Атмосферное давление - приведенное к уровню моря атмосферное давление.
  • Po - Атмосферное давление - измеренное на уровне метеостанции атмосферное давление.
  • Tmin - Минимальная температура - минимум температуры воздуха на высоте 2 м над землей.
  • Tmax - Максимальная температура - максимум температуры воздуха на высоте 2 м над землей.
  • R - Количество осадков - Количество выпавших осадков за период времени, мм. При наведении курсора мыши на число - период времени, за который выпало указанное количество осадков.
  • R24 - Количество осадков - Количество выпавших осадков за 24 часа, мм.
  • S - Снежный покров - Высота снежного покрова, см. При наведении курсора мыши на число - состояние снежного покрова и степень покрытия местности в баллах.